Wind_Speed
15 15 14 14 15 14 14 15 14 13 12 12 12 11 10 10 9 9 9 9 8 9 8 7 7 7 7 6 5 5 5 5 5 5 5 5 5 4 5 5 5 5 5 5 5 4 4 4 4
16 16 15 15 16 15 16 15 13 12 11 11 11 10 9 10 9 9 9 9 9 10 9 8 8 7 7 6 6 6 5 4 4 4 4 4 4 4 4 4 4 4 5 4 4 4 3 3 3
16 16 16 16 17 17 17 16 14 13 12 12 11 10 9 9 9 9 9 9 10 11 10 9 8 7 7 6 6 6 4 4 4 4 3 3 3 3 3 4 4 3 3 4 3 3 3 3 2
16 17 17 18 18 18 18 16 15 13 12 12 12 10 9 9 8 8 8 9 10 10 10 9 9 7 7 6 6 5 4 3 3 3 3 2 2 2 3 3 3 3 3 3 3 3 3 3 3
15 16 17 18 18 18 17 16 15 13 13 12 12 10 9 9 8 8 8 9 9 9 9 9 8 7 6 6 6 5 4 3 2 2 2 2 2 2 2 3 2 2 2 3 3 3 2 3 3
16 16 16 17 17 17 17 16 15 14 13 12 11 10 9 9 9 8 8 8 8 8 8 8 8 7 7 6 6 5 4 3 2 1 1 1 1 1 1 1 2 2 1 2 2 3 2 2 3
14 15 16 17 16 16 16 16 16 15 14 13 12 11 9 8 9 8 8 8 8 8 8 8 8 7 7 7 6 4 4 3 2 2 1 0 1 0 0 1 1 1 2 2 3 3 3 3 3
15 14 15 16 15 16 16 16 16 15 15 14 13 11 9 8 9 9 9 8 8 8 7 7 7 7 6 6 5 4 3 3 3 2 2 1 2 1 1 1 1 1 2 2 3 4 3 3 3
14 14 14 15 15 15 15 15 16 16 16 15 14 12 11 10 10 9 8 8 8 8 8 8 7 7 7 6 5 4 3 2 2 2 3 3 2 3 2 2 2 2 2 3 3 4 4 5 4
13 13 14 14 13 14 14 15 16 16 16 15 15 14 13 12 10 9 9 9 8 8 8 8 8 8 8 7 6 4 4 3 3 3 4 3 3 3 3 4 4 4 3 4 4 4 5 6 6
11 11 13 13 12 12 13 15 15 15 15 14 14 13 12 12 11 11 10 10 9 8 8 7 7 7 7 7 6 6 4 4 4 4 4 3 4 3 4 5 5 4 4 4 4 5 6 5 6
9 10 11 12 12 12 14 15 16 14 14 14 13 13 12 12 11 11 10 10 10 9 8 8 7 7 7 7 6 5 5 5 4 4 4 4 4 4 4 4 4 4 4 5 4 4 6 6 6
8 8 8 9 10 11 13 15 16 15 14 14 14 14 12 12 12 11 10 10 10 9 9 8 7 7 7 6 5 5 5 5 5 4 4 4 4 3 3 3 3 4 4 4 5 6 6 6 7
8 6 6 7 9 11 13 14 14 14 15 15 14 14 13 11 11 11 11 10 10 9 9 8 8 8 7 7 6 5 5 5 5 5 5 4 4 3 3 4 3 4 4 4 4 5 6 6 7
7 6 6 7 8 10 13 14 14 15 15 14 13 13 14 12 10 10 10 11 11 10 9 9 8 8 8 7 6 6 5 5 5 6 5 4 4 4 4 4 4 4 4 3 4 5 5 5 7
4 5 5 7 8 10 12 13 15 14 14 14 14 13 13 11 10 10 10 11 12 11 10 10 9 9 8 8 7 6 6 6 6 6 5 5 4 4 4 4 4 4 4 5 5 5 5 6 6
4 3 3 5 7 9 10 12 13 14 14 13 13 14 13 10 10 9 9 10 11 11 10 10 10 9 8 8 7 6 6 6 6 6 6 5 4 4 4 4 4 4 4 6 6 6 6 6 6
3 2 2 3 5 7 9 10 11 12 13 13 13 13 13 11 9 8 8 9 10 10 10 10 10 9 8 8 8 7 6 6 7 7 7 6 5 4 5 5 5 5 5 6 7 7 6 7 7
3 1 1 1 3 6 7 9 9 10 11 11 12 12 12 11 9 8 8 8 9 9 9 10 10 9 9 9 8 8 7 7 7 7 7 7 6 5 5 5 6 6 7 7 8 8 8 8 8
6 3 3 3 3 6 7 7 8 8 8 11 12 11 11 11 9 7 7 8 9 9 9 9 10 9 9 9 9 8 8 7 7 7 7 8 8 7 6 6 7 7 8 7 8 9 9 9 9
8 6 6 6 7 7 8 7 7 9 9 9 11 11 10 10 10 9 8 7 8 9 10 10 10 10 10 10 9 9 8 7 7 7 7 8 8 9 8 8 8 8 8 7 8 9 9 9 10
10 9 9 8 8 9 9 9 8 9 9 9 10 10 11 11 10 9 10 9 10 10 10 10 10 11 11 11 10 10 9 8 8 8 9 8 8 9 10 9 9 10 10 9 9 10 10 11 11
12 12 12 12 11 10 10 11 8 9 10 10 9 9 11 12 12 11 11 11 11 10 11 11 11 11 11 11 11 10 10 9 8 8 9 8 9 10 11 11 11 11 11 11 11 11 11 12 13
15 15 14 13 12 11 11 12 9 8 10 10 9 10 11 13 13 13 12 12 11 11 11 10 11 12 12 12 11 11 11 10 9 9 9 10 11 11 12 13 13 13 12 13 12 12 13 13 14
17 16 15 13 12 11 11 12 9 8 8 9 9 10 11 13 14 14 14 14 12 12 12 11 12 13 13 13 12 13 12 12 11 10 10 11 12 13 13 14 15 15 14 14 14 14 14 14 15
17 17 16 15 13 12 12 13 11 10 10 9 10 11 13 14 15 15 15 14 13 13 13 13 14 14 14 14 14 14 14 14 14 13 13 13 14 15 16 16 16 16 16 15 15 15 14 14 14
17 16 16 17 16 16 15 14 12 11 11 12 12 13 14 15 16 16 16 16 15 14 14 15 15 15 15 15 16 16 16 16 15 15 15 15 16 16 17 17 17 17 17 17 17 17 17 16 16
20 18 17 18 18 17 17 16 15 14 13 14 14 14 16 16 18 17 17 17 16 15 15 16 16 16 16 17 17 17 17 17 16 16 16 16 17 17 18 19 18 19 20 19 18 19 19 18 18
20 20 20 20 20 19 19 19 17 17 16 16 16 17 18 18 19 19 19 18 18 17 16 17 18 18 18 18 18 18 18 18 18 18 18 19 19 20 20 20 21 21 20 19 19 19 20 20 20
22 22 22 23 23 21 22 21 20 20 19 19 20 20 20 21 21 21 21 21 20 19 18 18 19 19 19 19 19 19 19 20 20 20 20 21 21 22 22 22 22 21 21 21 21 21 21 21 21
Wind_Direction
83 75 72 69 64 61 58 58 57 55 56 55 54 57 61 62 59 62 64 65 62 58 61 64 67 73 70 73 85 91 108 115 115 109 103 98 101 117 130 134 139 144 146 140 135 135 137 128 118
78 73 69 66 62 58 55 55 55 52 52 53 52 52 54 58 57 60 61 62 61 59 65 71 70 71 65 64 71 81 92 111 115 115 104 84 87 98 126 140 143 145 145 145 142 142 143 133 121
80 74 68 65 63 54 49 49 49 50 49 49 48 48 49 54 57 61 61 60 60 60 63 69 70 71 68 58 57 63 84 105 115 118 107 89 87 100 114 139 146 145 148 155 156 150 149 146 137
80 72 67 63 56 51 48 46 45 48 43 43 46 46 48 53 58 59 60 60 60 60 62 64 65 68 67 57 53 61 84 94 107 113 115 107 113 120 125 137 148 150 161 172 170 166 159 168 166
83 76 66 60 55 51 45 44 42 40 38 40 43 46 47 51 58 58 58 58 61 63 64 64 61 59 59 55 48 57 75 92 91 105 122 112 124 128 133 142 171 180 190 193 187 189 189 190 194
78 73 64 55 52 48 45 42 39 36 35 36 44 44 46 48 56 57 55 56 57 60 62 60 53 51 50 45 48 50 55 73 57 51 109 126 137 114 111 149 183 183 209 207 202 214 219 220 215
74 69 59 54 48 43 45 41 37 37 38 38 42 43 45 46 52 53 51 51 51 52 56 57 51 48 44 40 41 48 48 41 25 23 7 306 255 317 323 193 194 235 248 242 237 233 233 226 222
69 66 62 55 47 42 44 41 36 37 37 37 37 38 42 48 52 52 52 50 48 46 49 49 47 44 36 36 34 41 44 30 8 4 356 320 278 283 272 240 235 275 292 266 251 243 242 229 222
66 62 64 54 45 43 41 39 38 34 32 33 35 39 43 49 55 55 53 50 49 48 46 43 37 36 31 26 25 34 36 32 14 360 350 340 320 293 275 269 268 277 294 283 267 244 247 243 239
65 62 60 56 48 42 42 40 40 35 29 30 35 39 44 50 53 55 54 54 51 49 46 43 36 35 34 28 22 27 31 27 15 359 340 319 313 297 283 278 277 276 275 268 263 250 248 249 245
73 65 54 50 49 44 44 39 40 35 31 33 35 38 44 49 50 51 55 58 55 50 45 42 35 29 28 30 26 18 22 20 9 353 337 320 312 299 291 290 286 280 270 261 263 256 252 252 249
80 66 55 45 44 40 37 34 36 32 29 31 34 37 47 47 46 45 50 53 52 49 42 37 28 23 23 26 32 25 14 4 358 346 336 321 311 311 307 292 283 282 269 263 268 265 262 259 254
90 77 65 50 41 36 33 30 28 27 27 32 37 37 42 45 41 40 43 49 51 48 41 34 25 21 22 24 21 14 12 10 1 0 343 335 325 308 297 301 291 289 274 263 267 264 264 267 259
96 83 71 48 46 37 33 28 28 30 29 26 29 30 29 35 36 34 34 36 40 41 39 34 29 31 29 24 22 15 3 7 6 3 351 352 355 337 311 299 301 286 283 275 282 276 267 264 263
100 90 76 59 47 41 29 21 23 26 26 22 21 26 23 24 29 31 30 30 31 32 33 31 29 28 26 24 26 14 8 13 11 359 351 359 349 338 326 318 317 300 295 290 292 283 265 268 262
117 87 67 51 40 35 23 17 15 17 18 18 20 22 19 19 22 27 28 29 29 31 30 28 23 21 24 24 20 15 11 10 13 8 359 354 342 335 331 328 326 305 287 291 291 285 268 264 258
145 80 50 42 31 23 11 6 12 11 11 13 16 15 13 11 12 21 27 27 26 26 23 21 19 20 25 23 20 15 9 9 8 6 1 353 343 335 334 319 317 314 295 289 291 288 270 265 262
122 67 43 20 14 3 358 357 3 6 4 6 9 9 8 8 9 11 18 22 20 18 17 15 15 18 22 21 20 18 11 9 8 6 2 358 351 340 342 328 310 305 300 293 294 289 279 271 262
188 128 74 322 335 329 344 353 352 357 359 1 3 3 5 1 7 7 9 17 17 13 13 13 15 16 17 17 18 19 17 18 17 15 7 2 352 341 339 335 322 311 304 290 283 280 275 271 266
223 229 240 229 258 289 303 318 330 336 350 359 357 357 0 360 5 10 9 12 15 13 9 8 10 11 11 10 9 11 12 15 13 10 3 0 357 350 342 331 325 321 316 307 292 279 273 268 263
237 242 249 260 254 270 281 290 300 313 329 347 350 347 355 357 2 3 4 12 11 6 3 1 359 357 356 356 356 357 357 359 357 354 350 350 348 348 345 335 327 320 312 304 295 289 283 278 271
237 246 256 255 260 262 266 275 289 302 317 335 341 338 342 348 352 357 357 5 4 356 353 350 349 349 347 347 350 351 351 351 348 346 343 339 339 337 337 330 327 323 317 306 298 291 285 279 279
237 241 254 261 260 246 254 269 278 292 303 317 326 326 336 338 341 349 353 355 351 347 346 345 344 344 345 346 346 345 343 341 340 338 334 331 331 331 331 326 322 320 317 308 301 293 288 284 281
240 243 250 259 255 243 248 265 271 287 301 308 312 320 323 325 327 333 340 344 343 338 340 341 342 339 337 337 334 333 331 329 328 329 328 325 323 323 324 322 319 317 315 313 305 298 294 292 289
239 245 250 252 249 246 251 259 264 274 288 299 304 313 314 316 318 321 326 332 332 329 331 332 331 328 325 324 322 320 321 319 318 318 320 320 319 319 319 318 317 316 311 310 309 306 302 297 293
243 248 252 256 252 249 254 264 263 261 272 283 293 302 309 310 314 317 319 323 324 323 324 324 323 323 321 317 314 311 313 315 312 310 311 312 313 315 317 316 318 316 311 310 311 309 306 304 298
239 243 250 256 255 256 256 261 258 255 264 274 286 292 299 303 305 309 313 314 314 317 318 319 319 318 320 317 309 309 310 311 310 307 306 305 307 311 313 312 313 313 311 310 309 307 303 303 302
237 239 246 253 258 260 255 257 265 265 266 272 278 283 290 298 301 303 306 306 307 310 311 313 313 313 314 314 311 307 306 306 306 305 304 304 304 307 307 307 307 306 307 307 304 302 299 297 296
234 237 242 251 255 259 262 258 260 265 266 268 272 278 284 292 298 300 301 300 301 303 305 306 306 306 308 308 308 306 303 303 303 302 302 302 302 303 303 304 303 303 301 302 303 300 296 294 293
238 239 242 246 252 256 263 262 260 264 266 267 270 274 279 284 289 293 295 294 294 296 298 299 300 301 303 304 304 304 302 301 302 301 300 300 299 302 301 302 302 301 300 299 299 298 296 294 292
Height
5914 5913 5913 5914 5913 5912 5910 5910 5910 5909 5909 5908 5908 5908 5907 5907 5906 5907 5904 5902 5901 5899 5898 5898 5898 5899 5900 5900 5899 5899 5900 5900 5900 5900 5900 5900 5900 5900 5901 5901 5901 5901 5901 5901 5901 5901 5902 5902 5902
5915 5915 5916 5916 5914 5913 5912 5912 5912 5911 5910 5909 5909 5909 5908 5908 5907 5906 5904 5904 5902 5900 5898 5899 5900 5900 5901 5901 5901 5901 5901 5901 5901 5901 5901 5901 5901 5901 5901 5901 5901 5902 5902 5902 5902 5902 5902 5902 5902
5917 5917 5918 5917 5915 5915 5915 5914 5913 5912 5911 5911 5911 5911 5910 5909 5908 5907 5906 5905 5904 5903 5902 5901 5902 5902 5902 5902 5902 5902 5902 5902 5902 5902 5902 5902 5902 5902 5902 5902 5902 5902 5902 5902 5902 5902 5902 5903 5902
5920 5920 5920 5918 5916 5916 5916 5916 5915 5914 5913 5913 5912 5912 5911 5910 5909 5908 5907 5906 5906 5905 5904 5904 5904 5904 5903 5903 5903 5903 5902 5903 5903 5903 5903 5903 5903 5903 5902 5903 5903 5903 5902 5902 5902 5902 5903 5903 5902
5921 5921 5920 5919 5918 5918 5918 5917 5916 5915 5915 5914 5913 5912 5912 5911 5910 5909 5908 5907 5907 5907 5906 5906 5905 5905 5904 5904 5904 5903 5903 5903 5903 5903 5903 5903 5903 5903 5903 5903 5903 5903 5902 5902 5902 5902 5902 5902 5902
5924 5923 5922 5921 5920 5920 5920 5919 5918 5917 5916 5914 5914 5913 5912 5912 5911 5910 5909 5909 5908 5908 5907 5907 5907 5906 5905 5905 5904 5904 5904 5903 5903 5903 5903 5903 5903 5903 5903 5903 5903 5903 5902 5902 5902 5902 5902 5902 5902
5926 5925 5923 5923 5923 5922 5921 5920 5919 5918 5917 5916 5914 5914 5913 5912 5911 5911 5910 5910 5909 5909 5909 5908 5907 5907 5906 5906 5905 5904 5904 5904 5903 5903 5903 5903 5903 5903 5903 5903 5903 5903 5902 5902 5902 5901 5901 5901 5901
5927 5927 5925 5925 5924 5923 5923 5922 5921 5919 5919 5918 5916 5915 5914 5913 5912 5911 5911 5911 5910 5910 5909 5909 5908 5908 5907 5906 5905 5905 5904 5904 5903 5903 5903 5902 5902 5902 5902 5902 5902 5902 5902 5901 5901 5901 5901 5900 5900
5928 5928 5927 5927 5926 5925 5924 5923 5922 5921 5920 5919 5917 5916 5915 5914 5912 5912 5912 5912 5911 5911 5910 5909 5909 5908 5907 5906 5905 5905 5904 5904 5903 5903 5902 5902 5902 5902 5902 5901 5901 5901 5901 5900 5900 5900 5900 5900 5899
5929 5929 5929 5929 5928 5927 5925 5925 5924 5923 5921 5920 5919 5917 5915 5914 5914 5913 5913 5912 5912 5911 5910 5910 5909 5909 5908 5907 5905 5905 5904 5903 5903 5902 5902 5902 5901 5901 5901 5901 5900 5899 5899 5899 5899 5898 5899 5898 5898
5930 5930 5930 5930 5929 5928 5927 5926 5925 5924 5924 5922 5920 5918 5916 5915 5915 5914 5913 5912 5912 5911 5911 5911 5910 5909 5908 5907 5906 5905 5904 5904 5903 5902 5902 5901 5901 5901 5900 5900 5899 5898 5898 5897 5897 5897 5897 5897 5897
5931 5931 5931 5931 5930 5929 5928 5928 5927 5926 5925 5923 5921 5919 5917 5917 5916 5915 5914 5913 5912 5912 5911 5911 5910 5909 5908 5907 5906 5905 5904 5903 5903 5902 5901 5901 5900 5900 5899 5899 5898 5897 5897 5897 5896 5896 5895 5895 5896
5932 5932 5932 5931 5931 5930 5930 5929 5928 5927 5926 5923 5921 5920 5918 5917 5916 5916 5915 5914 5913 5913 5912 5911 5910 5909 5908 5907 5906 5905 5904 5903 5902 5901 5901 5900 5899 5899 5899 5898 5897 5896 5896 5895 5895 5895 5894 5894 5894
5933 5933 5933 5933 5932 5932 5931 5930 5929 5928 5927 5925 5924 5922 5920 5919 5918 5917 5916 5915 5914 5913 5912 5911 5910 5909 5908 5907 5906 5905 5904 5902 5901 5900 5900 5899 5898 5898 5897 5897 5896 5896 5895 5894 5894 5894 5893 5893 5893
5934 5934 5934 5933 5933 5933 5932 5931 5930 5929 5928 5927 5925 5924 5922 5920 5919 5918 5917 5916 5915 5913 5912 5911 5910 5909 5908 5907 5906 5905 5904 5902 5901 5900 5899 5898 5897 5897 5896 5896 5895 5894 5894 5893 5893 5892 5892 5892 5891
5935 5935 5934 5935 5933 5933 5934 5933 5931 5929 5928 5927 5926 5925 5923 5922 5920 5919 5918 5916 5915 5914 5913 5911 5910 5909 5908 5907 5906 5905 5903 5902 5901 5900 5899 5898 5897 5896 5895 5894 5894 5893 5892 5892 5891 5890 5890 5890 5890
5935 5935 5934 5935 5934 5934 5934 5933 5932 5930 5929 5928 5927 5925 5924 5922 5921 5919 5918 5917 5916 5915 5913 5912 5910 5909 5908 5907 5906 5904 5903 5902 5900 5899 5898 5897 5896 5895 5893 5893 5892 5891 5891 5890 5890 5889 5888 5888 5888
5934 5934 5935 5935 5935 5934 5934 5932 5932 5931 5930 5929 5927 5926 5925 5923 5922 5920 5918 5917 5916 5915 5914 5912 5911 5909 5908 5907 5905 5904 5903 5901 5900 5899 5898 5896 5895 5894 5893 5892 5891 5890 5889 5888 5888 5887 5886 5886 5886
5934 5933 5934 5934 5934 5934 5933 5932 5932 5931 5930 5929 5928 5927 5925 5923 5922 5920 5919 5917 5916 5915 5914 5913 5911 5910 5908 5907 5905 5904 5902 5901 5900 5899 5897 5896 5894 5893 5892 5891 5890 5888 5887 5886 5885 5884 5884 5884 5884
5932 5932 5933 5933 5933 5933 5932 5932 5932 5931 5930 5929 5928 5926 5925 5923 5921 5920 5919 5918 5916 5915 5914 5912 5911 5909 5908 5907 5905 5904 5902 5901 5899 5898 5897 5895 5894 5892 5891 5890 5888 5887 5885 5883 5882 5881 5881 5881 5881
5930 5931 5932 5931 5931 5931 5931 5930 5930 5929 5928 5927 5926 5925 5925 5923 5922 5920 5919 5918 5916 5915 5913 5912 5911 5909 5908 5906 5905 5903 5901 5900 5899 5897 5896 5894 5893 5891 5890 5888 5887 5885 5883 5881 5880 5878 5878 5878 5877
5928 5929 5930 5929 5930 5929 5929 5928 5928 5927 5926 5926 5925 5924 5923 5922 5921 5920 5919 5917 5916 5914 5913 5912 5910 5909 5907 5905 5904 5902 5900 5899 5897 5896 5895 5893 5891 5890 5888 5887 5885 5883 5881 5879 5878 5877 5876 5875 5874
5926 5927 5927 5927 5927 5928 5927 5926 5927 5925 5925 5924 5924 5923 5922 5921 5920 5919 5918 5917 5915 5914 5912 5911 5909 5907 5906 5904 5902 5901 5899 5898 5896 5894 5893 5891 5890 5888 5886 5885 5883 5881 5879 5877 5875 5874 5873 5872 5871
5923 5924 5924 5925 5925 5925 5925 5924 5924 5923 5923 5923 5923 5922 5921 5920 5918 5918 5917 5915 5914 5913 5911 5910 5908 5906 5904 5902 5901 5899 5897 5896 5894 5893 5891 5889 5888 5886 5884 5883 5881 5879 5877 5875 5873 5871 5870 5868 5867
5920 5921 5921 5921 5920 5921 5921 5920 5921 5921 5921 5920 5920 5919 5919 5918 5917 5915 5914 5913 5912 5911 5909 5907 5906 5904 5902 5900 5898 5897 5895 5894 5892 5891 5889 5887 5885 5883 5881 5880 5878 5876 5874 5871 5870 5868 5866 5864 5863
5916 5917 5918 5918 5917 5918 5918 5917 5919 5918 5917 5917 5917 5916 5916 5915 5914 5913 5912 5910 5910 5908 5907 5905 5904 5902 5900 5898 5896 5894 5893 5891 5890 5888 5886 5884 5882 5880 5878 5876 5875 5873 5871 5869 5867 5865 5863 5861 5859
5911 5912 5914 5914 5913 5913 5913 5913 5914 5914 5913 5914 5914 5913 5912 5912 5911 5910 5909 5908 5907 5906 5904 5903 5901 5899 5897 5895 5893 5891 5890 5888 5886 5885 5883 5881 5879 5877 5875 5873 5871 5869 5867 5865 5863 5861 5859 5857 5855
5907 5908 5909 5909 5909 5909 5909 5909 5910 5910 5910 5909 5909 5909 5909 5909 5908 5907 5906 5905 5904 5902 5901 5900 5898 5896 5894 5892 5890 5888 5886 5885 5883 5881 5879 5877 5875 5873 5871 5869 5867 5865 5862 5860 5858 5856 5854 5853 5851
5902 5903 5903 5904 5904 5904 5904 5906 5906 5906 5905 5905 5905 5905 5905 5905 5905 5904 5903 5901 5900 5898 5897 5896 5894 5893 5890 5889 5887 5885 5883 5880 5878 5876 5875 5872 5870 5868 5866 5864 5862 5859 5857 5855 5853 5851 5849 5847 5845
5896 5897 5898 5899 5899 5900 5899 5902 5900 5900 5900 5900 5900 5900 5900 5900 5900 5900 5899 5897 5895 5894 5893 5892 5890 5888 5886 5884 5882 5880 5878 5876 5874 5872 5870 5867 5864 5863 5861 5858 5856 5854 5852 5850 5848 5846 5844 5841 5839